Time,TemperatureF,DewpointF,PressureIn,WindDirection,WindDirectionDegrees,WindSpeedMPH,WindSpeedGustMPH,Humidity,HourlyPrecipIn,Conditions,Clouds,dailyrainin,SoftwareType,DateUTC
2013-09-28 00:12:00,52.0,50.0,30.24,WNW,293,0.0,-999.0,92,-99.99,,,0.00,weatherlink.com 1.10,2013-09-28 04:12:00,
2013-09-28 00:27:00,51.7,50.0,30.24,WNW,293,0.0,-999.0,93,-99.99,,,0.00,weatherlink.com 1.10,2013-09-28 04:27:00,
2013-09-28 00:42:00,51.6,50.0,30.24,WNW,293,0.0,-999.0,93,-99.99,,,0.00,weatherlink.com 1.10,2013-09-28 04:42:00,
2013-09-28 00:57:00,51.3,50.0,30.24,WNW,293,0.0,-999.0,94,-99.99,,,0.00,weatherlink.com 1.10,2013-09-28 04:57:00,
2013-09-28 01:12:00,51.0,49.0,30.23,WNW,293,0.0,-999.0,94,-99.99,,,0.00,weatherlink.com 1.10,2013-09-28 05:12:00,
2013-09-28 01:27:00,50.7,49.0,30.23,WNW,293,0.0,-999.0,94,-99.99,,,0.00,weatherlink.com 1.10,2013-09-28 05:27:00,
2013-09-28 01:42:00,50.4,49.0,30.24,WNW,293,0.0,-999.0,94,-99.99,,,0.00,weatherlink.com 1.10,2013-09-28 05:42:00,
2013-09-28 01:57:00,50.2,49.0,30.23,WNW,293,0.0,-999.0,95,-99.99,,,0.00,weatherlink.com 1.10,2013-09-28 05:57:00,
2013-09-28 02:13:00,50.2,49.0,30.23,WNW,293,0.0,-999.0,96,-99.99,,,0.00,weatherlink.com 1.10,2013-09-28 06:13:00,
2013-09-28 02:28:00,50.5,49.0,30.23,WNW,293,0.0,-999.0,96,-99.99,,,0.00,weatherlink.com 1.10,2013-09-28 06:28:00,
2013-09-28 02:43:00,50.8,50.0,30.23,WNW,293,0.0,-999.0,96,-99.99,,,0.00,weatherlink.com 1.10,2013-09-28 06:43:00,
2013-09-28 02:58:00,51.1,50.0,30.23,WNW,293,0.0,-999.0,97,-99.99,,,0.00,weatherlink.com 1.10,2013-09-28 06:58:00,
2013-09-28 03:13:00,51.3,51.0,30.23,WNW,293,0.0,-999.0,97,-99.99,,,0.00,weatherlink.com 1.10,2013-09-28 07:13:00,
2013-09-28 03:28:00,51.4,51.0,30.23,WNW,293,0.0,-999.0,97,-99.99,,,0.00,weatherlink.com 1.10,2013-09-28 07:28:00,
2013-09-28 03:43:00,51.6,51.0,30.22,WNW,293,0.0,-999.0,97,-99.99,,,0.00,weatherlink.com 1.10,2013-09-28 07:43:00,
2013-09-28 03:58:00,51.7,51.0,30.22,WNW,293,0.0,-999.0,97,-99.99,,,0.00,weatherlink.com 1.10,2013-09-28 07:58:00,
2013-09-28 04:13:00,51.7,51.0,30.22,WNW,293,0.0,-999.0,97,-99.99,,,0.00,weatherlink.com 1.10,2013-09-28 08:13:00,
2013-09-28 04:28:00,51.7,51.0,30.22,WNW,293,0.0,-999.0,97,-99.99,,,0.00,weatherlink.com 1.10,2013-09-28 08:28:00,
2013-09-28 04:43:00,51.7,51.0,30.23,WNW,293,0.0,-999.0,97,-99.99,,,0.00,weatherlink.com 1.10,2013-09-28 08:43:00,
2013-09-28 04:58:00,51.9,51.0,30.23,WNW,293,0.0,-999.0,97,-99.99,,,0.00,weatherlink.com 1.10,2013-09-28 08:58:00,
2013-09-28 05:13:00,51.7,51.0,30.23,WNW,293,0.0,-999.0,97,-99.99,,,0.00,weatherlink.com 1.10,2013-09-28 09:13:00,
2013-09-28 05:28:00,51.6,51.0,30.23,WNW,293,0.0,-999.0,97,-99.99,,,0.00,weatherlink.com 1.10,2013-09-28 09:28:00,
2013-09-28 05:43:00,51.4,51.0,30.24,WNW,293,0.0,-999.0,97,-99.99,,,0.00,weatherlink.com 1.10,2013-09-28 09:43:00,
2013-09-28 05:58:00,51.1,50.0,30.24,WNW,293,0.0,-999.0,97,-99.99,,,0.00,weatherlink.com 1.10,2013-09-28 09:58:00,
2013-09-28 06:13:00,51.1,50.0,30.24,WNW,293,0.0,-999.0,97,-99.99,,,0.00,weatherlink.com 1.10,2013-09-28 10:13:00,
2013-09-28 06:28:00,51.0,50.0,30.24,WNW,293,0.0,-999.0,97,-99.99,,,0.00,weatherlink.com 1.10,2013-09-28 10:28:00,
2013-09-28 06:43:00,50.5,50.0,30.25,WNW,293,0.0,-999.0,97,-99.99,,,0.00,weatherlink.com 1.10,2013-09-28 10:43:00,
2013-09-28 06:58:00,50.2,49.0,30.27,WNW,293,0.0,-999.0,97,-99.99,,,0.00,weatherlink.com 1.10,2013-09-28 10:58:00,
2013-09-28 07:13:00,49.9,49.0,30.27,WNW,293,0.0,-999.0,97,-99.99,,,0.00,weatherlink.com 1.10,2013-09-28 11:13:00,
2013-09-28 07:28:00,49.5,49.0,30.27,WNW,293,0.0,-999.0,97,-99.99,,,0.00,weatherlink.com 1.10,2013-09-28 11:28:00,
2013-09-28 07:43:00,49.6,49.0,30.29,WNW,293,0.0,-999.0,97,-99.99,,,0.00,weatherlink.com 1.10,2013-09-28 11:43:00,
2013-09-28 07:58:00,49.8,49.0,30.29,WNW,293,0.0,-999.0,98,-99.99,,,0.00,weatherlink.com 1.10,2013-09-28 11:58:00,
2013-09-28 08:13:00,49.9,49.0,30.29,WNW,293,0.0,-999.0,98,-99.99,,,0.00,weatherlink.com 1.10,2013-09-28 12:13:00,
2013-09-28 08:28:00,50.4,50.0,30.30,WNW,293,0.0,-999.0,98,-99.99,,,0.00,weatherlink.com 1.10,2013-09-28 12:28:00,
2013-09-28 08:43:00,50.8,50.0,30.30,WNW,293,0.0,-999.0,98,-99.99,,,0.00,weatherlink.com 1.10,2013-09-28 12:43:00,
2013-09-28 08:58:00,51.1,51.0,30.30,WNW,293,0.0,-999.0,98,-99.99,,,0.00,weatherlink.com 1.10,2013-09-28 12:58:00,
2013-09-28 09:13:00,51.1,51.0,30.30,WNW,293,0.0,-999.0,98,-99.99,,,0.00,weatherlink.com 1.10,2013-09-28 13:13:00,
2013-09-28 09:28:00,51.3,51.0,30.31,WNW,293,0.0,-999.0,98,-99.99,,,0.00,weatherlink.com 1.10,2013-09-28 13:28:00,
2013-09-28 09:43:00,51.4,51.0,30.31,WNW,293,0.0,-999.0,97,-99.99,,,0.00,weatherlink.com 1.10,2013-09-28 13:43:00,
2013-09-28 09:58:00,52.0,51.0,30.30,WNW,293,0.0,-999.0,97,-99.99,,,0.00,weatherlink.com 1.10,2013-09-28 13:58:00,
2013-09-28 10:13:00,52.5,52.0,30.31,WNW,293,0.0,-999.0,97,-99.99,,,0.00,weatherlink.com 1.10,2013-09-28 14:13:00,
2013-09-28 10:28:00,52.8,52.0,30.31,WNW,293,0.0,-999.0,96,-99.99,,,0.00,weatherlink.com 1.10,2013-09-28 14:28:00,
2013-09-28 10:43:00,53.2,52.0,30.31,WNW,293,0.0,-999.0,95,-99.99,,,0.00,weatherlink.com 1.10,2013-09-28 14:43:00,
2013-09-28 10:58:00,54.1,53.0,30.31,WNW,293,0.0,-999.0,94,-99.99,,,0.00,weatherlink.com 1.10,2013-09-28 14:58:00,
2013-09-28 11:13:00,54.8,53.0,30.30,WNW,293,0.0,-999.0,92,-99.99,,,0.00,weatherlink.com 1.10,2013-09-28 15:13:00,
2013-09-28 11:28:00,54.8,52.0,30.31,WNW,293,0.0,-999.0,90,-99.99,,,0.00,weatherlink.com 1.10,2013-09-28 15:28:00,
2013-09-28 11:43:00,55.0,52.0,30.31,WNW,293,0.0,-999.0,90,-99.99,,,0.00,weatherlink.com 1.10,2013-09-28 15:43:00,
2013-09-28 11:58:00,55.1,52.0,30.31,WNW,293,0.0,-999.0,90,-99.99,,,0.00,weatherlink.com 1.10,2013-09-28 15:58:00,
2013-09-28 12:13:00,55.4,52.0,30.30,WNW,293,0.0,-999.0,89,-99.99,,,0.00,weatherlink.com 1.10,2013-09-28 16:13:00,
2013-09-28 12:28:00,55.9,53.0,30.29,WNW,293,0.0,-999.0,89,-99.99,,,0.00,weatherlink.com 1.10,2013-09-28 16:28:00,
2013-09-28 12:43:00,56.9,53.0,30.30,WNW,293,0.0,-999.0,88,-99.99,,,0.00,weatherlink.com 1.10,2013-09-28 16:43:00,
2013-09-28 12:58:00,57.5,53.0,30.29,WNW,293,0.0,-999.0,84,-99.99,,,0.00,weatherlink.com 1.10,2013-09-28 16:58:00,
2013-09-28 13:13:00,57.5,53.0,30.29,WNW,293,0.0,-999.0,85,-99.99,,,0.00,weatherlink.com 1.10,2013-09-28 17:13:00,
2013-09-28 13:28:00,57.6,53.0,30.28,WNW,293,0.0,-999.0,85,-99.99,,,0.00,weatherlink.com 1.10,2013-09-28 17:28:00,
2013-09-28 13:43:00,58.0,54.0,30.27,WNW,293,0.0,-999.0,86,-99.99,,,0.00,weatherlink.com 1.10,2013-09-28 17:43:00,
2013-09-28 13:58:00,57.6,54.0,30.27,WNW,293,0.0,-999.0,86,-99.99,,,0.00,weatherlink.com 1.10,2013-09-28 17:58:00,
2013-09-28 14:13:00,57.8,53.0,30.26,WNW,293,1.0,-999.0,85,-99.99,,,0.00,weatherlink.com 1.10,2013-09-28 18:13:00,
2013-09-28 14:28:00,58.1,54.0,30.26,WNW,293,0.0,-999.0,85,-99.99,,,0.00,weatherlink.com 1.10,2013-09-28 18:28:00,
2013-09-28 14:43:00,58.6,54.0,30.26,WNW,293,0.0,-999.0,83,-99.99,,,0.00,weatherlink.com 1.10,2013-09-28 18:43:00,
2013-09-28 14:58:00,58.0,53.0,30.26,WNW,293,0.0,-999.0,84,-99.99,,,0.00,weatherlink.com 1.10,2013-09-28 18:58:00,
2013-09-28 15:13:00,57.6,53.0,30.26,WNW,293,0.0,-999.0,84,-99.99,,,0.00,weatherlink.com 1.10,2013-09-28 19:13:00,
2013-09-28 15:28:00,58.1,54.0,30.25,SSE,159,0.0,-999.0,85,-99.99,,,0.00,weatherlink.com 1.10,2013-09-28 19:28:00,
2013-09-28 15:43:00,58.1,53.0,30.23,SSE,159,0.0,-999.0,84,-99.99,,,0.00,weatherlink.com 1.10,2013-09-28 19:43:00,
2013-09-28 15:58:00,57.3,53.0,30.23,SSE,159,0.0,-999.0,85,-99.99,,,0.00,weatherlink.com 1.10,2013-09-28 19:58:00,
2013-09-28 16:13:00,57.0,53.0,30.24,SSE,161,0.0,-999.0,87,-99.99,,,0.00,weatherlink.com 1.10,2013-09-28 20:13:00,
2013-09-28 16:28:00,57.6,54.0,30.24,SSE,161,0.0,-999.0,87,-99.99,,,0.00,weatherlink.com 1.10,2013-09-28 20:28:00,
2013-09-28 16:43:00,57.5,53.0,30.23,SSE,161,0.0,-999.0,86,-99.99,,,0.00,weatherlink.com 1.10,2013-09-28 20:43:00,
2013-09-28 16:58:00,57.2,53.0,30.24,SSE,161,0.0,-999.0,87,-99.99,,,0.00,weatherlink.com 1.10,2013-09-28 20:58:00,
2013-09-28 17:13:00,57.0,53.0,30.23,SSE,161,0.0,-999.0,87,-99.99,,,0.00,weatherlink.com 1.10,2013-09-28 21:13:00,
2013-09-28 17:28:00,56.5,53.0,30.24,SSE,161,0.0,-999.0,87,-99.99,,,0.00,weatherlink.com 1.10,2013-09-28 21:28:00,
2013-09-28 17:43:00,56.2,53.0,30.25,SSE,161,0.0,-999.0,89,-99.99,,,0.00,weatherlink.com 1.10,2013-09-28 21:43:00,
2013-09-28 17:58:00,56.0,53.0,30.25,SSE,161,0.0,-999.0,90,-99.99,,,0.00,weatherlink.com 1.10,2013-09-28 21:58:00,
2013-09-28 18:13:00,55.7,53.0,30.25,SSE,161,0.0,-999.0,90,-99.99,,,0.00,weatherlink.com 1.10,2013-09-28 22:13:00,
2013-09-28 18:28:00,55.7,53.0,30.25,SSE,161,0.0,-999.0,91,-99.99,,,0.00,weatherlink.com 1.10,2013-09-28 22:28:00,
2013-09-28 18:43:00,55.3,53.0,30.25,SSE,161,0.0,-999.0,91,-99.99,,,0.00,weatherlink.com 1.10,2013-09-28 22:43:00,
2013-09-28 18:58:00,54.5,52.0,30.25,SSE,161,0.0,-999.0,91,-99.99,,,0.00,weatherlink.com 1.10,2013-09-28 22:58:00,
2013-09-28 19:13:00,53.6,51.0,30.25,SSE,161,0.0,-999.0,92,-99.99,,,0.00,weatherlink.com 1.10,2013-09-28 23:13:00,
2013-09-28 19:28:00,53.1,51.0,30.25,SSE,161,0.0,-999.0,92,-99.99,,,0.00,weatherlink.com 1.10,2013-09-28 23:28:00,
2013-09-28 19:43:00,52.5,51.0,30.26,SSE,161,0.0,-999.0,93,-99.99,,,0.00,weatherlink.com 1.10,2013-09-28 23:43:00,
2013-09-28 19:58:00,51.6,50.0,30.26,SSE,161,0.0,-999.0,93,-99.99,,,0.00,weatherlink.com 1.10,2013-09-28 23:58:00,
2013-09-28 20:13:00,51.0,49.0,30.27,SSE,161,0.0,-999.0,94,-99.99,,,0.00,weatherlink.com 1.10,2013-09-29 00:13:00,
2013-09-28 20:28:00,50.4,49.0,30.27,SSE,161,0.0,-999.0,95,-99.99,,,0.00,weatherlink.com 1.10,2013-09-29 00:28:00,
2013-09-28 20:43:00,49.9,49.0,30.27,SSE,161,0.0,-999.0,95,-99.99,,,0.00,weatherlink.com 1.10,2013-09-29 00:43:00,
2013-09-28 20:58:00,49.6,48.0,30.27,SSE,161,0.0,-999.0,95,-99.99,,,0.00,weatherlink.com 1.10,2013-09-29 00:58:00,
2013-09-28 21:13:00,49.4,48.0,30.27,SSE,161,0.0,-999.0,96,-99.99,,,0.00,weatherlink.com 1.10,2013-09-29 01:13:00,
2013-09-28 21:28:00,49.2,48.0,30.28,SSE,161,0.0,-999.0,96,-99.99,,,0.00,weatherlink.com 1.10,2013-09-29 01:28:00,
2013-09-28 21:44:00,49.4,48.0,30.28,SSE,161,0.0,-999.0,96,-99.99,,,0.00,weatherlink.com 1.10,2013-09-29 01:44:00,
2013-09-28 21:59:00,49.6,49.0,30.28,SSE,161,0.0,-999.0,97,-99.99,,,0.00,weatherlink.com 1.10,2013-09-29 01:59:00,
2013-09-28 22:14:00,49.8,49.0,30.27,SSE,161,0.0,-999.0,97,-99.99,,,0.00,weatherlink.com 1.10,2013-09-29 02:14:00,
2013-09-28 22:29:00,49.9,49.0,30.27,SSE,161,0.0,-999.0,97,-99.99,,,0.00,weatherlink.com 1.10,2013-09-29 02:29:00,
2013-09-28 22:44:00,49.6,49.0,30.26,SSE,161,0.0,-999.0,97,-99.99,,,0.00,weatherlink.com 1.10,2013-09-29 02:44:00,
2013-09-28 22:59:00,48.9,48.0,30.26,SSE,161,0.0,-999.0,96,-99.99,,,0.00,weatherlink.com 1.10,2013-09-29 02:59:00,
2013-09-28 23:14:00,48.5,48.0,30.26,SSE,161,0.0,-999.0,96,-99.99,,,0.00,weatherlink.com 1.10,2013-09-29 03:14:00,
2013-09-28 23:29:00,48.2,47.0,30.26,SSE,161,0.0,-999.0,96,-99.99,,,0.00,weatherlink.com 1.10,2013-09-29 03:29:00,
2013-09-28 23:44:00,47.9,47.0,30.25,SSE,161,0.0,-999.0,95,-99.99,,,0.00,weatherlink.com 1.10,2013-09-29 03:44:00,
2013-09-28 23:59:00,47.7,46.0,30.25,SSE,161,0.0,-999.0,95,-99.99,,,0.00,weatherlink.com 1.10,2013-09-29 03:59:00,